Wind_Speed
8 7 7 6 6 6 6 7 8 9 10 12 13 15 16 16 16 17 18 19 19 19 19 20 20 20 20 20 20 20 20 20 21 21 22 22 22 22 22 23 24 24 24
8 8 7 7 6 6 6 7 8 10 11 12 13 14 14 16 17 18 19 20 20 20 21 22 22 21 21 22 22 22 22 23 24 25 25 24 24 25 25 26 26 27 28
9 8 8 8 7 7 7 8 9 10 12 13 14 15 16 17 18 18 19 20 21 21 22 23 22 22 23 23 24 25 25 25 25 26 26 27 27 28 29 29 29 30 31
10 9 9 9 9 10 9 10 10 10 11 13 14 15 17 18 18 18 20 21 22 22 22 23 24 24 24 25 25 26 26 26 26 27 27 28 30 30 31 32 33 33 34
11 11 11 11 11 11 11 11 11 11 12 13 14 16 17 18 18 19 20 21 22 23 22 23 24 25 26 26 26 26 27 27 28 28 28 29 30 31 32 32 33 35 36
13 13 13 12 13 12 12 12 12 13 13 14 14 16 17 17 18 20 21 22 22 23 23 23 24 25 26 27 27 27 28 28 29 30 30 30 31 32 33 34 35 36 37
15 15 14 15 14 14 13 14 14 15 15 15 16 18 18 19 20 20 21 22 23 23 23 23 24 25 26 27 27 28 28 29 30 30 31 31 32 33 34 35 35 36 37
17 17 17 17 16 16 15 16 15 16 16 16 16 16 17 18 20 20 21 22 23 23 23 23 24 26 26 27 28 28 29 30 31 32 33 34 34 34 34 35 37 37 38
19 19 19 18 18 18 18 18 18 17 17 17 17 18 19 19 20 21 22 22 23 24 25 26 27 27 28 29 29 30 31 31 32 33 33 34 34 35 35 36 37 37 39
20 19 19 19 19 19 19 19 19 19 19 19 19 19 20 21 22 22 24 24 25 25 26 27 28 29 30 30 30 31 31 32 33 34 34 34 35 36 36 37 37 37 38
21 21 21 20 20 20 20 20 20 21 21 21 22 22 21 21 22 23 24 25 25 26 27 27 28 28 29 30 31 32 32 33 34 34 34 34 35 35 35 36 37 38 39
22 22 21 21 21 20 21 21 21 22 22 23 23 23 23 23 24 25 25 26 26 26 27 28 28 29 30 31 32 32 32 33 33 33 34 35 36 37 38 38 39 40 41
23 22 22 22 22 22 22 22 22 22 22 23 23 24 24 25 25 25 26 26 27 28 28 29 30 31 31 31 31 31 32 33 34 35 36 37 37 38 39 39 40 41 43
23 23 23 23 22 23 23 22 22 22 23 23 24 25 25 25 25 25 26 26 27 28 29 30 30 31 32 32 32 32 33 34 35 37 37 38 39 39 40 40 42 43 45
24 24 24 24 23 23 23 23 23 24 24 24 24 25 25 25 26 26 26 27 27 28 29 29 30 31 31 32 33 34 34 35 36 37 37 38 40 41 42 42 44 45 46
24 24 24 24 23 23 23 24 24 24 24 24 24 24 25 25 26 25 26 26 27 27 28 29 31 31 32 33 34 35 36 36 37 38 39 40 41 42 43 44 44 45 45
23 23 23 23 23 23 23 23 23 23 23 23 24 24 25 26 26 26 26 27 27 28 29 29 30 31 32 33 33 34 34 36 37 38 39 40 41 42 42 43 42 43 42
23 22 22 22 21 21 21 22 22 22 22 23 24 24 24 25 25 26 26 27 27 28 28 29 30 31 32 32 33 34 35 37 37 38 39 40 40 40 40 40 40 40 40
22 22 21 20 20 21 21 21 22 22 23 23 23 24 24 24 24 25 25 26 27 28 28 29 30 31 32 33 34 35 36 37 37 38 38 38 38 37 38 37 38 38 38
21 20 19 19 20 20 20 21 21 21 21 22 22 23 23 23 24 25 26 27 28 28 29 30 31 32 33 34 34 35 35 35 35 35 35 34 34 35 35 35 36 36 36
19 19 19 19 19 19 19 19 20 20 21 21 22 23 23 24 25 26 27 28 29 30 31 31 32 33 33 33 33 33 33 33 32 32 32 32 32 33 33 33 33 33 33
18 17 17 17 18 19 19 20 20 20 20 21 22 24 25 26 27 27 28 29 30 31 31 32 32 32 32 32 31 31 31 31 31 30 30 30 31 31 31 31 31 31 31
16 16 16 17 18 18 19 19 19 20 21 22 23 24 25 26 27 27 28 29 29 30 31 31 31 31 30 30 30 30 30 30 29 29 29 29 29 29 29 28 28 28 28
15 15 16 17 17 18 18 19 19 20 21 22 24 25 26 27 28 28 29 29 30 30 30 30 30 29 29 29 29 28 28 28 28 27 27 27 27 27 27 27 26 27 26
14 15 15 16 17 17 17 18 19 21 22 24 25 26 26 27 27 27 28 29 29 29 29 29 28 28 28 28 27 26 26 26 26 25 25 25 25 25 26 25 25 25 25
13 14 15 15 16 16 18 19 21 23 24 24 25 25 26 26 26 27 27 27 27 27 27 26 26 26 25 25 24 24 24 24 24 24 24 24 24 24 24 24 24 24 24
Wind_Direction
322 321 320 312 294 275 266 260 251 244 241 241 241 240 243 246 250 251 251 255 260 262 263 264 265 267 264 267 270 271 270 270 270 270 270 269 270 270 270 269 269 270 271
315 315 311 308 301 286 272 267 260 253 251 251 248 246 248 251 254 254 254 258 261 262 263 265 266 265 265 268 271 273 273 273 273 272 271 270 269 269 270 270 270 270 272
311 308 308 303 296 285 275 272 266 261 259 256 255 250 251 255 258 257 257 260 262 263 264 264 265 267 268 269 271 273 274 274 275 276 273 272 271 271 271 271 271 273 272
305 302 298 300 296 284 278 275 272 268 263 260 258 253 253 259 262 260 261 262 263 264 265 264 265 266 268 269 272 274 274 275 276 277 276 275 275 274 273 273 273 273 274
301 300 299 295 296 292 284 280 277 276 272 267 263 259 260 262 265 265 265 264 265 266 268 269 268 269 269 270 272 274 274 275 276 277 277 278 278 277 276 275 274 274 275
295 296 296 293 291 293 291 287 282 279 276 272 269 264 265 266 267 268 268 269 268 268 269 272 271 271 272 272 273 274 275 276 277 278 279 281 281 280 276 275 275 275 276
291 292 291 291 291 290 291 290 285 279 277 277 274 270 269 269 269 271 270 270 271 271 271 272 273 274 274 274 273 273 274 275 277 279 280 282 283 282 280 278 277 278 278
287 289 291 291 289 288 289 289 287 284 281 277 277 275 272 274 275 274 274 274 274 274 273 274 275 274 276 277 277 276 277 278 278 279 281 281 282 282 282 281 278 277 277
285 287 288 289 289 288 288 288 285 284 284 281 278 278 277 277 278 278 278 279 279 278 276 275 277 277 278 278 278 279 279 279 279 279 278 279 280 281 282 282 281 280 280
283 284 285 288 289 290 288 286 283 281 282 283 283 282 281 279 278 279 279 280 281 280 279 277 278 279 280 279 279 279 279 280 280 280 279 280 282 282 282 282 282 282 282
281 281 284 286 287 287 287 284 283 282 281 281 281 281 281 282 281 283 283 282 283 283 281 281 281 281 280 280 280 279 279 280 281 282 283 283 283 283 284 284 283 283 283
280 281 283 283 284 285 285 283 281 281 281 280 280 281 282 282 283 285 284 285 285 284 283 284 284 283 282 282 282 281 281 282 282 283 284 284 284 285 285 285 285 285 284
280 281 281 282 283 283 283 283 281 280 281 282 281 282 283 282 282 283 284 284 284 284 284 285 284 284 284 284 284 283 283 283 283 284 286 286 286 287 287 287 286 286 286
282 282 282 282 282 282 284 283 281 280 281 281 282 283 283 283 284 284 285 285 286 286 286 285 284 284 284 284 283 283 284 283 284 286 286 287 288 288 288 287 288 288 288
282 281 282 283 282 282 282 282 282 282 283 283 283 283 284 286 286 285 287 286 287 289 287 285 285 286 284 283 284 284 284 285 287 288 289 289 289 289 288 288 289 289 289
281 280 280 281 281 281 281 281 281 282 283 284 284 284 286 287 287 286 287 287 289 290 290 289 288 289 288 288 288 287 287 287 289 290 290 289 289 289 290 290 290 290 291
283 283 282 281 281 280 280 281 281 282 283 283 284 285 286 288 288 288 289 290 291 291 292 292 291 291 290 290 290 289 289 289 290 290 290 290 291 291 292 292 292 292 292
283 284 284 283 283 281 281 283 283 283 284 286 287 288 289 289 289 289 290 292 293 293 292 292 292 293 292 292 293 293 293 293 292 292 293 293 293 293 294 294 294 294 294
282 283 282 281 282 282 282 283 285 286 287 288 289 289 289 290 290 291 292 293 294 294 294 293 294 294 294 295 295 295 295 295 295 295 295 295 295 295 295 295 296 296 296
282 282 282 282 282 283 284 286 287 289 292 291 291 290 290 292 293 293 293 295 296 297 296 296 296 296 295 296 297 297 297 297 298 297 297 297 297 297 297 297 298 298 299
282 282 282 282 283 285 286 287 288 290 293 294 294 293 293 294 294 295 296 297 298 298 298 298 297 297 297 298 299 299 300 300 300 300 299 300 300 300 301 301 301 302 302
282 281 281 281 284 286 287 289 290 291 293 294 294 295 296 296 297 298 298 298 297 297 298 299 299 300 300 301 302 302 302 302 301 301 302 302 302 303 303 304 304 304 305
281 282 283 284 286 288 290 290 291 293 294 295 296 297 297 298 299 299 299 299 299 299 300 301 302 303 303 304 304 304 304 304 304 304 304 304 305 306 307 308 308 309 309
281 284 285 287 289 291 292 293 295 296 295 295 297 298 299 300 300 300 301 301 301 301 302 303 304 304 304 305 305 305 306 306 306 306 307 308 309 310 311 311 312 312 313
283 287 289 290 291 293 294 296 297 298 299 301 302 303 303 303 303 303 303 304 304 305 305 305 306 306 306 306 306 307 307 308 309 310 311 312 313 314 314 314 314 315 315
287 290 291 293 295 297 298 299 300 302 304 305 306 307 307 307 307 307 308 308 308 309 309 309 309 309 308 308 308 309 310 312 313 314 314 315 316 316 317 317 318 319 319
Height
5874 5873 5872 5871 5870 5869 5869 5869 5869 5870 5870 5871 5872 5873 5874 5875 5875 5875 5876 5877 5878 5878 5878 5879 5879 5878 5879 5879 5879 5878 5878 5878 5877 5877 5876 5876 5875 5874 5873 5872 5871 5870 5869
5872 5871 5870 5869 5868 5868 5867 5868 5868 5868 5868 5868 5869 5870 5870 5871 5871 5871 5872 5872 5873 5873 5873 5873 5873 5873 5873 5873 5873 5872 5872 5872 5871 5870 5870 5869 5869 5868 5867 5865 5864 5863 5862
5871 5870 5869 5868 5867 5866 5865 5865 5865 5865 5865 5865 5866 5866 5867 5867 5867 5867 5867 5868 5868 5868 5868 5867 5867 5867 5867 5867 5866 5866 5865 5865 5864 5863 5862 5862 5861 5860 5859 5858 5857 5856 5854
5869 5868 5867 5866 5865 5864 5863 5863 5863 5862 5862 5862 5862 5862 5862 5863 5862 5862 5862 5862 5862 5862 5862 5861 5861 5861 5860 5860 5859 5859 5858 5857 5857 5856 5855 5854 5853 5852 5851 5850 5849 5847 5846
5866 5865 5864 5863 5863 5861 5861 5860 5860 5859 5859 5858 5858 5858 5858 5858 5858 5858 5857 5857 5856 5856 5855 5855 5854 5854 5853 5853 5852 5851 5850 5850 5849 5848 5847 5846 5845 5843 5842 5841 5839 5838 5836
5863 5862 5861 5860 5859 5858 5858 5857 5856 5856 5855 5854 5854 5853 5853 5853 5853 5852 5851 5851 5850 5849 5849 5849 5848 5848 5847 5846 5845 5844 5843 5842 5841 5840 5839 5838 5836 5834 5833 5831 5830 5828 5826
5859 5859 5858 5857 5856 5855 5854 5853 5852 5851 5850 5850 5849 5849 5848 5848 5847 5846 5845 5845 5844 5843 5843 5842 5841 5841 5840 5838 5837 5836 5836 5834 5833 5832 5831 5829 5827 5825 5823 5821 5819 5818 5816
5855 5854 5854 5853 5852 5851 5850 5849 5848 5847 5846 5845 5845 5844 5843 5842 5841 5840 5839 5839 5838 5837 5836 5835 5834 5833 5832 5831 5830 5829 5828 5826 5825 5823 5822 5820 5818 5816 5813 5812 5809 5807 5805
5850 5850 5849 5848 5847 5846 5845 5844 5843 5842 5841 5840 5839 5839 5838 5837 5836 5834 5834 5832 5831 5830 5829 5829 5827 5826 5825 5823 5822 5821 5819 5818 5816 5814 5812 5810 5808 5806 5804 5802 5799 5797 5794
5845 5845 5844 5843 5842 5841 5840 5839 5838 5837 5836 5835 5834 5833 5832 5831 5830 5828 5827 5826 5824 5823 5822 5821 5820 5818 5816 5815 5813 5812 5810 5809 5807 5805 5803 5801 5798 5796 5794 5791 5789 5786 5784
5840 5839 5838 5837 5836 5835 5834 5833 5832 5831 5830 5829 5828 5827 5826 5825 5823 5822 5820 5819 5817 5816 5814 5813 5811 5810 5808 5806 5804 5802 5801 5799 5797 5795 5793 5791 5788 5786 5783 5781 5778 5775 5773
5834 5833 5833 5832 5831 5830 5828 5827 5826 5825 5824 5822 5821 5820 5819 5818 5816 5815 5813 5812 5810 5808 5807 5805 5803 5801 5800 5798 5795 5793 5791 5789 5787 5785 5783 5780 5778 5775 5772 5769 5766 5763 5760
5828 5827 5826 5825 5824 5823 5822 5821 5819 5818 5817 5816 5814 5813 5812 5811 5809 5807 5806 5804 5802 5800 5799 5797 5795 5793 5791 5789 5786 5784 5782 5780 5777 5775 5772 5770 5767 5764 5760 5757 5754 5751 5748
5821 5821 5820 5819 5818 5817 5815 5814 5813 5812 5810 5809 5807 5806 5805 5803 5801 5800 5798 5796 5794 5792 5790 5788 5786 5784 5782 5780 5777 5775 5772 5770 5767 5765 5762 5759 5756 5753 5749 5746 5742 5738 5735
5814 5814 5813 5812 5811 5810 5809 5807 5806 5805 5804 5802 5800 5799 5797 5796 5794 5793 5791 5788 5786 5784 5781 5779 5777 5775 5773 5770 5767 5765 5762 5760 5757 5754 5751 5748 5744 5741 5737 5733 5730 5725 5722
5807 5806 5805 5804 5803 5802 5801 5800 5799 5798 5796 5795 5793 5792 5790 5789 5787 5784 5782 5780 5778 5775 5773 5771 5768 5765 5763 5760 5757 5755 5752 5749 5746 5743 5739 5736 5732 5729 5725 5721 5717 5713 5709
5800 5799 5798 5797 5796 5795 5794 5793 5792 5791 5789 5788 5786 5785 5783 5781 5779 5777 5775 5772 5770 5767 5765 5762 5759 5757 5754 5751 5748 5745 5742 5738 5735 5731 5728 5724 5720 5716 5712 5708 5704 5700 5696
5793 5792 5791 5790 5789 5788 5787 5786 5785 5784 5782 5781 5779 5777 5776 5774 5772 5769 5767 5765 5762 5759 5757 5754 5751 5748 5745 5742 5738 5735 5731 5728 5724 5720 5716 5712 5708 5704 5700 5696 5692 5688 5684
5787 5786 5785 5784 5783 5782 5780 5779 5778 5777 5775 5774 5772 5770 5768 5766 5764 5762 5759 5757 5754 5751 5749 5746 5743 5739 5736 5732 5729 5725 5721 5717 5713 5709 5705 5701 5697 5693 5689 5685 5681 5677 5673
5780 5779 5779 5778 5777 5776 5774 5773 5772 5770 5769 5767 5765 5763 5761 5759 5757 5755 5752 5749 5746 5744 5740 5737 5734 5730 5727 5723 5719 5715 5711 5707 5703 5698 5694 5690 5686 5682 5679 5675 5671 5666 5662
5774 5773 5773 5772 5771 5769 5768 5767 5766 5764 5762 5760 5758 5756 5754 5752 5750 5747 5745 5741 5738 5735 5732 5728 5724 5721 5717 5713 5709 5705 5701 5697 5693 5689 5685 5681 5677 5673 5669 5665 5661 5657 5653
5768 5768 5767 5766 5765 5764 5762 5761 5760 5758 5756 5754 5752 5750 5747 5745 5742 5739 5736 5733 5730 5726 5723 5719 5715 5711 5708 5704 5700 5696 5692 5688 5684 5681 5677 5673 5669 5665 5661 5656 5652 5648 5644
5763 5762 5762 5761 5760 5758 5757 5755 5754 5752 5750 5748 5746 5743 5740 5737 5734 5731 5728 5725 5721 5718 5714 5710 5706 5702 5699 5695 5691 5687 5684 5680 5676 5672 5669 5665 5661 5657 5653 5649 5645 5641 5637
5758 5758 5757 5755 5754 5753 5751 5749 5748 5746 5744 5741 5739 5736 5733 5730 5726 5723 5720 5716 5712 5709 5705 5701 5698 5694 5690 5687 5683 5680 5676 5673 5669 5665 5661 5658 5654 5650 5646 5642 5638 5634 5630
5753 5753 5751 5750 5749 5747 5746 5744 5742 5740 5737 5735 5732 5729 5725 5722 5718 5715 5711 5708 5704 5700 5697 5693 5690 5686 5683 5679 5676 5673 5669 5666 5662 5659 5655 5651 5647 5644 5640 5636 5632 5628 5624
5749 5748 5747 5746 5744 5742 5741 5738 5736 5734 5731 5728 5725 5721 5718 5715 5711 5708 5704 5700 5696 5693 5689 5686 5682 5679 5676 5673 5670 5666 5663 5660 5656 5652 5649 5645 5642 5638 5634 5630 5626 5622 5619